TimeCDT,TemperatureF,Dew PointF,Humidity,Sea Level PressureIn,VisibilityMPH,Wind Direction,Wind SpeedMPH,Gust SpeedMPH,PrecipitationIn,Events,Conditions,WindDirDegrees,DateUTC
12:53 AM,30.9,27.0,85,30.46,10.0,Calm,Calm,-,N/A,,Clear,0,2013-05-03 05:53:00
1:53 AM,26.1,25.0,96,30.44,10.0,NW,4.6,-,N/A,,Clear,320,2013-05-03 06:53:00
2:53 AM,28.0,25.0,88,30.41,10.0,Calm,Calm,-,N/A,,Clear,0,2013-05-03 07:53:00
3:53 AM,23.0,21.0,92,30.42,10.0,WNW,5.8,-,N/A,,Clear,300,2013-05-03 08:53:00
4:53 AM,26.1,23.0,88,30.40,10.0,NW,5.8,-,N/A,,Clear,320,2013-05-03 09:53:00
5:53 AM,24.1,21.9,91,30.38,10.0,NW,4.6,-,N/A,,Clear,320,2013-05-03 10:53:00
6:53 AM,24.1,21.9,91,30.38,10.0,NW,3.5,-,N/A,,Clear,310,2013-05-03 11:53:00
7:53 AM,30.0,27.0,88,30.36,10.0,Calm,Calm,-,N/A,,Clear,0,2013-05-03 12:53:00
8:53 AM,37.0,30.9,79,30.35,10.0,Calm,Calm,-,N/A,,Clear,0,2013-05-03 13:53:00
9:53 AM,44.1,30.0,58,30.32,10.0,Calm,Calm,-,N/A,,Clear,0,2013-05-03 14:53:00
10:53 AM,48.9,30.9,50,30.30,10.0,North,4.6,-,N/A,,Clear,350,2013-05-03 15:53:00
11:53 AM,52.0,27.0,38,30.27,10.0,Variable,6.9,-,N/A,,Clear,0,2013-05-03 16:53:00
12:53 PM,54.0,21.9,29,30.24,10.0,NNE,9.2,-,N/A,,Partly Cloudy,20,2013-05-03 17:53:00
1:53 PM,55.9,23.0,28,30.22,10.0,NNE,15.0,20.7,N/A,,Partly Cloudy,20,2013-05-03 18:53:00
2:53 PM,57.9,23.0,26,30.19,10.0,North,13.8,19.6,N/A,,Clear,360,2013-05-03 19:53:00
3:53 PM,59.0,21.9,24,30.17,10.0,North,18.4,27.6,N/A,,Clear,10,2013-05-03 20:53:00
4:53 PM,59.0,21.9,24,30.14,10.0,North,12.7,23.0,N/A,,Clear,360,2013-05-03 21:53:00
5:53 PM,59.0,21.0,23,30.14,10.0,North,16.1,21.9,N/A,,Clear,360,2013-05-03 22:53:00
6:53 PM,57.0,18.0,22,30.14,10.0,NNE,15.0,24.2,N/A,,Clear,20,2013-05-03 23:53:00
7:53 PM,53.1,19.9,27,30.13,10.0,NNE,12.7,-,N/A,,Clear,30,2013-05-04 00:53:00
8:53 PM,45.0,23.0,42,30.14,10.0,NE,8.1,-,N/A,,Clear,40,2013-05-04 01:53:00
9:53 PM,39.9,23.0,51,30.15,10.0,NE,6.9,-,N/A,,Clear,40,2013-05-04 02:53:00
10:53 PM,39.0,21.0,49,30.16,10.0,NE,9.2,-,N/A,,Clear,40,2013-05-04 03:53:00
11:53 PM,34.0,21.0,59,30.17,10.0,NE,8.1,-,N/A,,Clear,50,2013-05-04 04:53:00